Location: Knowlton
(51.2333°N, 1.2667°E)
Time: 20:08:45
(UTC+00:00)

N. Korean satellite - Visible Passes

Search period start: 19 September 2021 00:00
Search period end: 29 September 2021 00:00
Orbit: 448 x 499 km, 97.3° (Epoch: 19 September)

Date Brightness Start Highest point End Pass type
(mag) Time Alt. Az. Time Alt. Az. Time Alt. Az.
19 Sep 8.7 04:45:07 10° NNE 04:48:14 30° E 04:51:23 10° SSE visible
20 Sep 9.7 04:18:07 10° NE 04:20:18 16° E 04:22:31 10° SE visible
22 Sep 8.2 04:54:57 10° NNE 04:58:17 39° E 05:01:38 10° SSE visible
23 Sep 9.5 04:27:41 10° NE 04:30:21 20° E 04:33:03 10° SE visible
24 Sep 10.2 04:01:44 10° ENE 04:02:20 10° E 04:02:57 10° E visible
25 Sep 7.6 05:04:47 10° NNE 05:08:15 51° E 05:11:45 10° S visible
26 Sep 9.1 04:37:21 10° NE 04:40:21 25° E 04:43:23 10° SSE visible
27 Sep 9.9 04:10:32 10° ENE 04:12:21 13° E 04:14:11 10° ESE visible
28 Sep 7.0 05:14:36 10° NNE 05:18:10 68° ESE 05:21:45 10° S visible
